This is the latest recevied weather packets stored in our database for station/object KQ7A. If no packets are shown the sender has not sent any weather packets the latest 10 day(s).
| Time | Temp. | Humidity | Pressure | Rain* | Wind** | Luminosity | Snow |
|---|---|---|---|---|---|---|---|
| 1777793273 | 10.56° C | 78% | 1016.9 hPa | 0 mm | - | 0 W/m² | - |
| 1777792970 | 10.56° C | 78% | 1017.1 hPa | 0 mm | - | 0 W/m² | - |
| 1777792667 | 10.56° C | 78% | 1017.1 hPa | 0 mm | - | 0 W/m² | - |
| 1777792364 | 10.56° C | 78% | 1017.3 hPa | 0 mm | - | 0 W/m² | - |
| 1777792060 | 10.56° C | 79% | 1016.9 hPa | 0 mm | - | 0 W/m² | - |
| 1777791758 | 10.56° C | 81% | 1017.1 hPa | 0 mm | - | 0 W/m² | - |
| 1777791456 | 10.56° C | 81% | 1017 hPa | 0 mm | - | 0 W/m² | - |
| 1777791153 | 11.11° C | 80% | 1016.9 hPa | 0 mm | - | 0 W/m² | - |
| 1777790850 | 10.56° C | 79% | 1016.9 hPa | 0 mm | - | 0 W/m² | - |
| 1777790547 | 10.56° C | 80% | 1016.8 hPa | 0 mm | - | 0 W/m² | - |
| 1777790244 | 10° C | 84% | 1017 hPa | 0 mm | - | 0 W/m² | - |
| 1777789938 | 10.56° C | 83% | 1017 hPa | 0 mm | - | 0 W/m² | - |
| 1777789635 | 10.56° C | 82% | 1016.9 hPa | 0 mm | - | 0 W/m² | - |
| 1777789334 | 11.11° C | 80% | 1017 hPa | 0 mm | - | 0 W/m² | - |
| 1777789030 | 11.11° C | 80% | 1016.8 hPa | 0 mm | - | 0 W/m² | - |
| 1777788728 | 11.11° C | 78% | 1016.8 hPa | 0 mm | - | 0 W/m² | - |
| 1777788423 | 11.11° C | 78% | 1016.8 hPa | 0 mm | - | 0 W/m² | - |
| 1777788117 | 11.11° C | 78% | 1017 hPa | 0 mm | - | 0 W/m² | - |
| 1777787813 | 11.11° C | 78% | 1017 hPa | 0 mm | - | 0 W/m² | - |
| 1777787509 | 11.11° C | 78% | 1016.8 hPa | 0 mm | - | 0 W/m² | - |
| 1777787204 | 11.11° C | 77% | 1016.9 hPa | 0 mm | - | 0 W/m² | - |
| 1777786901 | 11.11° C | 78% | 1017 hPa | 0 mm | - | 0 W/m² | - |
| 1777786599 | 11.11° C | 78% | 1017.1 hPa | 0 mm | - | 0 W/m² | - |
| 1777786298 | 11.67° C | 78% | 1017.1 hPa | 0 mm | - | 0 W/m² | - |
| 1777785994 | 11.67° C | 77% | 1017.1 hPa | 0 mm | - | 0 W/m² | - |
* Rain latest hour (hover to see other rain measurements)
** Current wind speed in m/s (hover to see current wind gust speed)